Flag for Saudi Arabia Weather past 2 weeks in Makkah, Saudi Arabia

Now
91 °F

Sunny.


Feels Like: 91 °F
Forecast: 78 / 101 °F
Wind: 12 mph from Southwest

Location: Jeddah King Abdul Aziz International Airport

Current Time: Mar 27, 2015 at 5:13:00 PM

Latest Report: Mar 27, 2015 at 4:00 PM


Visibility: 10 mi

Pressure: 29.71 "Hg

Humidity: 36%

Dew point: 61 °F

Location of MakkahLocation

Historic Weather in Makkah — Graph

°F

Makkah temperature yesterday

Maximum temperature yesterday: 90 °F (at 12:00 PM)
Minimum temperature yesterday: 79 °F (at 3:00 AM)
Average temperature yesterday: 83 °F

Past Weeks' High & Low Weather Summary

 TemperatureHumidityPressure
High99 °F (Mar 27, 12:00 PM)83% (Mar 15, 5:00 AM)29.95 "Hg (Mar 15, 5:00 AM)
Low70 °F (Mar 21, 7:00 AM)22% (Mar 27, 11:00 AM)29.71 "Hg (Mar 27, 3:00 PM)
Average80 °F56%29.84 "Hg
* Reported Mar 12 4:00 PM — Mar 27 4:00 PM, Makkah, Weather by CustomWeather, © 2015

Note: Actual official high and low records may vary slightly from our data, if they occured in-between our weather recording intervals... More about our weather records

Advertising

Makkah weather history for previous 24 hours

 ConditionsComfort  
Time TempWeatherWind HumidityBarometerVisibility
4:00 PM
Fri, Mar 27
91 °FSunny.12 mph36%29.71 "Hg10 mi
3:00 PM91 °FSunny.12 mph34%29.71 "Hg10 mi
2:00 PM95 °FSunny.12 mph28%29.74 "Hg10 mi
1:00 PM97 °FSunny.14 mph25%29.77 "Hg10 mi
12:00 PM99 °FSunny.9 mph22%29.80 "Hg10 mi
11:00 AM97 °FSunny.2 mph22%29.83 "Hg10 mi
10:00 AM90 °FSunny.5 mph31%29.83 "Hg10 mi
9:00 AM86 °FSunny.6 mph43%29.83 "Hg10 mi
8:00 AM81 °FSunny.7 mph54%29.83 "Hg10 mi
7:00 AM77 °FSunny.5 mph69%29.83 "Hg10 mi
6:00 AM77 °FClear.7 mph65%29.83 "Hg10 mi
5:00 AM77 °FClear.5 mph69%29.80 "Hg10 mi
4:00 AM79 °FClear.7 mph65%29.80 "Hg10 mi
3:00 AM79 °FClear.5 mph65%29.80 "Hg10 mi
2:00 AM79 °FClear.9 mph61%29.83 "Hg10 mi
1:00 AM79 °FClear.7 mph65%29.83 "Hg10 mi
12:00 AM81 °FClear.5 mph62%29.83 "Hg10 mi
11:00 PM
Thu, Mar 26
81 °FClear.5 mph62%29.83 "Hg10 mi
10:00 PM81 °FClear.5 mph70%29.83 "Hg10 mi
9:00 PM82 °FClear.5 mph66%29.83 "Hg10 mi
8:00 PM82 °FClear.7 mph66%29.83 "Hg10 mi
7:00 PM84 °FClear.5 mph62%29.80 "Hg10 mi
6:00 PM84 °FSunny.12 mph62%29.80 "Hg10 mi
5:00 PM86 °FSunny.14 mph62%29.80 "Hg10 mi
Weather by CustomWeather, © 2015

See weather overviewHow to use our weather pages